Date,TemperatureHighF,TemperatureAvgF,TemperatureLowF,DewpointHighF,DewpointAvgF,DewpointLowF,HumidityHigh,HumidityAvg,HumidityLow,PressureMaxIn,PressureMinIn,WindSpeedMaxMPH,WindSpeedAvgMPH,GustSpeedMaxMPH,PrecipitationSumIn
2013-1-1,52.7,43.3,36.5,36.0,32.5,27.6,82,66,49,30.15,30.08,2,0,6,0.00
2013-1-2,57.3,41.5,31.2,34.5,29.1,23.6,81,63,38,30.13,30.00,0,0,2,0.00
2013-1-3,56.6,41.5,32.0,37.2,30.3,24.6,82,65,43,30.15,30.04,0,0,1,0.00
2013-1-4,58.4,44.7,35.2,38.3,33.0,28.8,85,65,40,30.17,30.04,2,0,2,0.00
2013-1-5,55.5,46.9,36.6,45.6,39.3,29.8,85,75,61,30.14,29.95,1,0,6,0.00
2013-1-6,50.3,48.8,46.0,45.5,44.3,42.2,87,84,82,30.01,29.93,0,0,0,0.00
2013-1-8,62.7,54.2,43.8,48.5,41.5,35.9,90,63,47,30.11,29.99,0,0,0,0.00
2013-1-9,55.7,46.9,40.8,46.5,39.9,35.4,87,77,67,30.03,29.88,4,0,4,0.00
2013-1-10,51.2,45.0,39.5,36.2,33.1,29.2,76,64,49,30.08,29.96,7,0,7,0.00
2013-1-11,53.4,42.7,33.4,35.9,31.2,25.3,80,64,48,30.16,30.01,5,0,5,0.00
2013-1-12,52.1,40.9,32.5,32.3,24.3,7.6,80,55,19,30.15,30.01,0,0,1,0.00
2013-1-13,51.4,38.3,28.7,25.3,20.5,6.5,69,51,19,30.17,30.05,2,0,6,0.00
2013-1-14,52.1,39.3,29.3,19.6,12.8,1.1,53,36,19,30.29,30.11,2,0,3,0.00
2013-1-15,55.7,41.1,29.6,27.6,21.9,17.8,67,48,26,30.37,30.27,0,0,2,0.00
2013-1-16,57.9,42.7,30.9,30.7,25.4,20.7,72,52,30,30.32,30.13,0,0,0,0.00
2013-1-17,62.7,44.7,31.6,34.8,28.8,22.4,76,55,33,30.15,30.01,1,0,3,0.00
2013-1-18,64.5,47.1,34.3,37.3,31.5,25.7,80,57,32,30.11,29.99,0,0,2,0.00
2013-1-19,63.8,46.7,33.9,37.7,32.4,25.2,79,59,37,30.12,30.01,0,0,4,0.00
2013-1-20,64.9,46.4,33.9,38.0,30.5,26.0,82,57,27,30.11,29.99,1,0,2,0.00
2013-1-21,65.3,44.9,32.7,36.9,29.7,24.2,79,58,29,30.06,29.94,0,0,1,0.00
2013-1-23,52.1,52.1,51.9,48.0,47.9,47.7,86,86,85,29.96,29.94,0,0,0,0.00
2013-1-24,56.1,53.8,51.4,51.6,49.9,47.8,91,87,81,30.05,29.93,0,0,0,0.00
2013-1-25,65.1,57.0,53.7,56.2,51.8,48.8,96,83,66,30.06,29.90,0,0,3,0.00
2013-1-26,59.1,51.6,42.9,49.9,41.9,35.6,91,71,47,29.97,29.88,3,0,4,0.00
2013-1-27,57.0,48.9,42.0,39.4,35.4,27.1,78,61,32,30.05,29.96,5,0,6,0.00
2013-1-28,58.8,49.2,41.3,42.2,37.1,33.3,81,64,45,30.17,30.04,4,0,8,0.00
2013-1-29,59.5,48.6,40.2,42.6,37.5,33.1,82,66,46,30.23,30.13,4,0,5,0.00
2013-1-30,68.3,52.4,39.9,44.8,37.5,34.4,87,60,34,30.21,30.11,0,0,2,0.00
2013-1-31,66.7,50.4,37.9,44.5,37.5,31.4,86,63,40,30.17,30.03,2,0,2,0.00